SP5IZJ-2 Weather Reports


Display with metric or nautical units.
time (UTC)temp
F
wind
direction
speed
MPH
gust
MPH
rain 1hr
in
rain 24hr
in
rain mn
in
humidity
%
barometer
mb
20260505011310 50 359 0.0 0.0 0.00 0.00 0.00 74 1003.3
20260505010611 212 359 0.0 0.0 0.00 0.00 0.00 100
20260505005911 51 113 0.0 0.0 0.00 0.00 0.00 73 1003.2
20260505004511 52 113 0.0 0.0 0.00 0.00 0.00 72 1003.0
20260505003811 52 113 0.0 0.0 0.00 0.00 0.00 71 1003.1
20260505003111 52 113 0.0 0.0 0.00 0.00 0.00 72 1003.1
20260505002412 53 113 0.0 0.0 0.00 0.00 0.00 72 1003.1
20260505001012 53 113 0.0 0.0 0.00 0.00 0.00 71 1003.5
20260504235617 53 113 0.0 0.0 0.00 0.00 0.00 70 1003.4
20260504234913 53 113 0.0 0.0 0.00 0.00 0.00 69 1003.5
20260504233513 53 113 0.0 0.0 0.00 0.00 0.00 68 1003.4
20260504230014 54 113 0.0 0.0 0.00 0.00 0.00 67 1003.6
20260504225314 54 113 0.0 0.0 0.00 0.00 0.00 66 1003.8
20260504223914 54 113 0.0 0.0 0.00 0.00 0.00 64 1003.7
20260504221117 55 113 0.0 0.0 0.00 0.00 0.00 61 1003.6
20260504215715 56 113 0.0 0.0 0.00 0.00 0.00 60 1003.5
20260504214316 57 113 0.0 0.0 0.00 0.00 0.00 59 1003.8
20260504213618 57 113 0.0 0.0 0.00 0.00 0.00 59 1003.8
20260504212216 57 113 0.0 0.0 0.00 0.00 0.00 58 1003.7
20260504211523 58 113 0.0 0.0 0.00 0.00 0.00 58 1003.8
20260504203320 62 113 0.0 0.0 0.00 0.00 0.00 53 1003.8
20260504201918 62 113 0.0 0.0 0.00 0.00 0.00 51 1003.5
20260504201218 63 113 0.0 0.0 0.00 0.00 0.00 52 1003.5
20260504200518 63 113 0.0 0.0 0.00 0.00 0.00 51 1003.5
20260504195820 63 113 0.0 0.0 0.00 0.00 0.00 50 1003.4
20260504191619 65 0 0.0 0.0 0.00 0.00 0.00 46 1003.1
20260504181321 69 338 0.0 2.0 0.00 0.00 0.00 41 1002.8
20260504180623 71 338 1.0 3.0 0.00 0.00 0.00 40 1002.8
20260504171725 79 23 0.0 1.0 0.00 0.00 0.00 34 1002.5
20260504080436 73 0 10.0 17.0 0.00 0.00 0.00 34 1005.9
20260504070138 70 0 11.0 17.0 0.00 0.00 0.00 37 1005.6
20260504045541 60 0 10.0 13.0 0.00 0.00 0.00 47 1005.7
20260504044841 60 0 9.0 17.0 0.00 0.00 0.00 47 1005.6
20260504043441 59 0 6.0 11.0 0.00 0.00 0.00 50 1005.6
20260504041342 54 0 2.0 6.0 0.00 0.00 0.00 58 1005.5
20260504040642 52 0 1.0 6.0 0.00 0.00 0.00 58 1005.6
20260504033843 51 0 1.0 6.0 0.00 0.00 0.00 60 1005.6
20260504033143 50 0 1.0 4.0 0.00 0.00 0.00 61 1005.7
20260504031743 48 0 0.0 3.0 0.00 0.00 0.00 63 1005.7
20260504030344 47 0 0.0 0.0 0.00 0.00 0.00 64 1005.7
20260504023544 47 0 0.0 0.0 0.00 0.00 0.00 62 1005.7
20260504014646 50 0 0.0 4.0 0.00 0.00 0.00 60 1005.9
20260504013252 51 0 0.0 4.0 0.00 0.00 0.00 61 1005.9